COSMOS 249 DEB, 20011

Orbit data source: Space-Track

COSMOS 249 DEB, 20011 is space debris in LEO originally from a launch on Sun, 20 Oct 1968 UTC launched from the Tyuratam Missile And Space Complex (TTMTR). Debris objects in space refer to the collection of defunct objects orbiting the Earth. Examples of debris include non-operational satellites, rocket bodies, and fragments generated from explosions, collisions, or faulty payload assembly.

Loading next visibility...
Identifier
20011, 1968-091DN
Orbit
LEO
Country
Flag of CISCIS
Related business
Manufacturer
Unknown
Mission
Spacecraft
Bus & Motor
Unknown
Mass
Unknown
Launch date (UTC)
1968-10-20 (58 years ago)
Launch vehicle
Unknown
Launch site
Tyuratam Missile And Space Complex (TTMTR)
Object type
Payload
Rocket body
Debris
Shape & HBR
Unknown shape, 0.1 m
Radar Cross Section
Medium (>0.1 m² and <1 m²)

Expand to show TLE details & history
Last TLE update: 2 days ago

TLE from 2 days ago
0 COSMOS 249 DEB
1 20011U 68091DN  26170.70374479  .00000479  00000-0  60538-3 0  9990
2 20011  62.2254  63.7026 0624578 307.7233  46.8699 13.11071050643237
Epoch: 2026-06-19T16:53Z
TLE epoch observation values (Epoch: 2026-06-19T16:53:23.549Z)
Latitude
-0.00001°
Longitude
-97.57443°
Altitude
913.092 km
Speed
7.544 km/s
True Right ascension
04h 14m 48s
True Declination
0° 00' 00"
Sunlit
Object was in daylight at epoch
Visualization orbit readout
Latitude
Unknown
Longitude
Unknown
Altitude
Unknown
Speed
Unknown
Apparent Right ascension
Unknown
Apparent Declination
Unknown
Sunlit
N/A
Visualization observer readout
Local Sidereal Time
01:41:36
Azimuth
Unknown
Elevation
Unknown
Doppler factor
Unknown
Orbital elements
Apogee altitude
1,692.446 km
Perigee altitude
743.569 km
Semi-major axis
7,596.144 km
Eccentricity
0.06246
Inclination
62.2254°
RAAN
63.7026°
Arg. of periapsis
307.7233°
True anomaly
52.37845°
Mean anomaly
46.8699°
Eccentric anomaly
49.59491°
Mean motion
3.27834 °/min
Orbital period
109.81 mins
BSTAR
0.00060538

Documentation

Showing up to 5 results
|